Courtland, AL

6:15 PM CST on February 06, 2016 (GMT -0600)
Courtland

Weather History for K9A4 - July, 2013

Change the Weather History Date:

Friday, July 5, 2013

  Actual Average (KMSL) Record (KMSL)
Temperature  
Mean Temperature 72 °F 80 °F  
Max Temperature 75 °F 90 °F 104 °F (2012)
Min Temperature 68 °F 70 °F 54 °F (1922)
Degree Days  
Heating Degree Days 0 0  
Month to date heating degree days 0  
Since 1 June heating degree days 1  
Since 1 July heating degree days 0  
Cooling Degree Days 6 15  
Month to date cooling degree days 75  
Year to date cooling degree days 681  
Since 1 June cooling degree days 437  
Growing Degree Days 22 (Base 50)    
Moisture  
Dew Point 71 °F    
Average Humidity 99    
Maximum Humidity 100    
Minimum Humidity 89    
Precipitation  
Precipitation 0.00 in 0.15 in 1.84 in (2006)
Month to date precipitation 0.77  
Year to date precipitation 29.03  
Snow  
Snow 0.00 in - - ()
Month to date snowfall  
Since 1 June snowfall  
Since 1 July snowfall  
Snow Depth -    
Sea Level Pressure  
Sea Level Pressure 30.10 in    
Wind  
Wind Speed 4 mph (SSE)    
Max Wind Speed 14 mph    
Max Gust Speed 18 mph    
Visibility 9 miles    
Events Rain    
T = Trace of Precipitation, MM = Missing Value Source: NWS Daily Summary

Daily Weather History Graph

Daily Weather History Graph

Search for Another Location

Airport or City:

Trip Planner

Search our weather history database for the weather conditions in past years. The results will help you decide how hot, cold, wet, or windy it might be!

Date:

Astronomy

Jul. 05, 2013 Rise Set
Actual Time 5:42 AM CDT 8:05 PM CDT
Civil Twilight 5:12 AM CDT 8:35 PM CDT
Nautical Twilight 4:36 AM CDT 9:11 PM CDT
Astronomical Twilight 3:57 AM CDT 9:50 PM CDT
Moon 3:38 AM CDT (7/5) 6:02 PM CDT (7/5)
Length of Visible Light 15h 22m
Length of Day
14h 23m
Waning Crescent, 6% of the Moon is Illuminated
Jul 5
Waning Crescent
Jul 8
New
Jul 15
First Quarter
Jul 22
Full
Jul 29
Last Quarter

Hourly Weather History & Observations

Time (CDT) Temp. Dew Point Humidity Pressure Visibility Wind Dir Wind Speed Gust Speed Precip Events Conditions
12:15 AM 68.0 °F 68.0 °F 100% 30.06 in 10.0 mi Calm Calm - N/A   Overcast
12:35 AM 68.0 °F 68.0 °F 100% 30.06 in 10.0 mi Calm Calm - N/A   Overcast
12:55 AM 69.8 °F 69.8 °F 100% 30.06 in 10.0 mi ESE 3.5 mph - N/A   Overcast
1:15 AM 69.8 °F 69.8 °F 100% 30.06 in 10.0 mi SSE 4.6 mph - N/A   Overcast
1:35 AM 69.8 °F 69.8 °F 100% 30.05 in 10.0 mi SSE 3.5 mph - N/A   Overcast
1:55 AM 69.8 °F 69.8 °F 100% 30.05 in 10.0 mi SSE 4.6 mph - N/A Rain Rain
2:15 AM 69.8 °F 69.8 °F 100% 30.05 in 10.0 mi South 4.6 mph - N/A   Overcast
2:35 AM 69.8 °F 69.8 °F 100% 30.05 in 10.0 mi SSE 3.5 mph - N/A   Overcast
2:55 AM 69.8 °F 69.8 °F 100% 30.05 in 10.0 mi SSE 4.6 mph - N/A   Overcast
3:15 AM 69.8 °F 69.8 °F 100% 30.05 in 10.0 mi SSE 4.6 mph - N/A   Overcast
3:35 AM 69.8 °F 69.8 °F 100% 30.05 in 10.0 mi SSE 5.8 mph - N/A   Overcast
3:55 AM 69.8 °F 69.8 °F 100% 30.06 in 10.0 mi South 4.6 mph - N/A   Overcast
4:15 AM 69.8 °F 69.8 °F 100% 30.06 in 10.0 mi South 4.6 mph - N/A   Overcast
4:35 AM 69.8 °F 69.8 °F 100% 30.06 in 10.0 mi South 3.5 mph - N/A   Overcast
4:55 AM 69.8 °F 69.8 °F 100% 30.07 in 10.0 mi South 4.6 mph - N/A   Overcast
5:15 AM 69.8 °F 69.8 °F 100% 30.07 in 10.0 mi Calm Calm - N/A   Overcast
5:35 AM 69.8 °F 69.8 °F 100% 30.07 in 10.0 mi South 3.5 mph - N/A   Overcast
5:55 AM 69.8 °F 69.8 °F 100% 30.08 in 10.0 mi South 5.8 mph - N/A   Overcast
6:15 AM 69.8 °F 69.8 °F 100% 30.08 in 10.0 mi SSE 4.6 mph - N/A   Overcast
6:35 AM 69.8 °F 69.8 °F 100% 30.09 in 10.0 mi South 5.8 mph - N/A   Overcast
6:55 AM 69.8 °F 69.8 °F 100% 30.09 in 7.0 mi South 5.8 mph - N/A Rain Rain
7:15 AM 71.6 °F 71.6 °F 100% 30.09 in 10.0 mi SSE 4.6 mph - N/A   Overcast
7:35 AM 71.6 °F 71.6 °F 100% 30.10 in 10.0 mi SSE 4.6 mph - N/A   Overcast
7:55 AM 71.6 °F 71.6 °F 100% 30.10 in 10.0 mi South 5.8 mph - N/A   Overcast
8:15 AM 71.6 °F 71.6 °F 100% 30.11 in 10.0 mi SSE 5.8 mph - N/A   Overcast
8:35 AM 71.6 °F 71.6 °F 100% 30.12 in 10.0 mi South 4.6 mph - N/A   Overcast
8:55 AM 71.6 °F 71.6 °F 100% 30.12 in 10.0 mi SSE 4.6 mph - N/A   Overcast
9:15 AM 71.6 °F 71.6 °F 100% 30.12 in 10.0 mi South 4.6 mph - N/A   Overcast
9:35 AM 73.4 °F 71.6 °F 94% 30.12 in 10.0 mi South 3.5 mph - N/A   Overcast
9:55 AM 73.4 °F 71.6 °F 94% 30.12 in 10.0 mi South 3.5 mph - N/A   Overcast
10:15 AM 73.4 °F 71.6 °F 94% 30.13 in 10.0 mi South 5.8 mph - N/A   Overcast
10:35 AM 75.2 °F 71.6 °F 89% 30.13 in 10.0 mi SSE 6.9 mph - N/A   Overcast
10:55 AM 73.4 °F 71.6 °F 94% 30.12 in 10.0 mi SSE 11.5 mph - N/A   Overcast
11:15 AM 73.4 °F 73.4 °F 100% 30.13 in 7.0 mi SSE 6.9 mph - N/A   Drizzle
11:35 AM 73.4 °F 73.4 °F 100% 30.13 in 10.0 mi SE 10.4 mph - N/A   Overcast
11:55 AM 73.4 °F 71.6 °F 94% 30.13 in 10.0 mi SE 10.4 mph 17.3 mph N/A Rain Light Rain
12:15 PM 73.4 °F 71.6 °F 94% 30.13 in 10.0 mi SE 11.5 mph - N/A Rain Light Rain
12:35 PM 73.4 °F 73.4 °F 100% 30.13 in 10.0 mi SSE 8.1 mph - N/A Rain Light Rain
12:55 PM 73.4 °F 71.6 °F 94% 30.13 in 10.0 mi SSE 8.1 mph - N/A   Overcast
1:15 PM 73.4 °F 73.4 °F 100% 30.12 in 10.0 mi SSE 5.8 mph - N/A Rain Light Rain
1:35 PM 73.4 °F 73.4 °F 100% 30.13 in 10.0 mi SSE 5.8 mph - N/A   Overcast
1:55 PM 75.2 °F 73.4 °F 94% 30.12 in 10.0 mi SSE 8.1 mph - N/A Rain Light Rain
2:15 PM 73.4 °F 73.4 °F 100% 30.11 in 10.0 mi SSE 6.9 mph - N/A Rain Light Rain
2:35 PM 73.4 °F 73.4 °F 100% 30.11 in 10.0 mi SSE 5.8 mph - N/A   Overcast
2:55 PM 73.4 °F 73.4 °F 100% 30.10 in 10.0 mi SSE 5.8 mph - N/A Rain Rain
3:15 PM 73.4 °F 73.4 °F 100% 30.10 in 5.0 mi SSE 5.8 mph - N/A Rain Rain
3:35 PM 73.4 °F 73.4 °F 100% 30.10 in 7.0 mi South 5.8 mph - N/A Rain Rain
3:55 PM 73.4 °F 73.4 °F 100% 30.10 in 10.0 mi SSE 3.5 mph - N/A   Overcast
4:15 PM 73.4 °F 73.4 °F 100% 30.10 in 10.0 mi Calm Calm - N/A Rain Light Rain
4:35 PM 73.4 °F 73.4 °F 100% 30.09 in 10.0 mi Calm Calm - N/A   Overcast
4:55 PM 73.4 °F 73.4 °F 100% 30.09 in 10.0 mi Calm Calm - N/A   Overcast
5:15 PM 71.6 °F 71.6 °F 100% 30.09 in 2.0 mi South 13.8 mph 17.3 mph N/A Rain Heavy Rain
5:35 PM 71.6 °F 69.8 °F 94% 30.08 in 4.0 mi South 10.4 mph - N/A Rain Heavy Rain
5:55 PM 71.6 °F 71.6 °F 100% 30.07 in 10.0 mi SSE 5.8 mph - N/A   Mostly Cloudy
6:15 PM 71.6 °F 71.6 °F 100% 30.07 in 10.0 mi Calm Calm - N/A   Clear
6:35 PM 73.4 °F 71.6 °F 94% 30.08 in 10.0 mi SSE 4.6 mph - N/A   Scattered Clouds
6:55 PM 73.4 °F 71.6 °F 94% 30.09 in 10.0 mi Calm Calm - N/A   Drizzle
7:15 PM 71.6 °F 71.6 °F 100% 30.09 in 10.0 mi SE 3.5 mph - N/A Rain Rain
7:35 PM 71.6 °F 71.6 °F 100% 30.10 in 5.0 mi SSE 5.8 mph - N/A Rain Rain
7:55 PM 71.6 °F 71.6 °F 100% 30.10 in 4.0 mi ESE 3.5 mph - N/A Rain Rain
8:15 PM 71.6 °F 71.6 °F 100% 30.10 in 7.0 mi East 4.6 mph - N/A Rain Rain
8:35 PM 71.6 °F 71.6 °F 100% 30.09 in 10.0 mi SE 5.8 mph - N/A Rain Rain
8:55 PM 69.8 °F 69.8 °F 100% 30.11 in 1.2 mi SE 9.2 mph 18.4 mph N/A Rain Heavy Rain
9:15 PM 69.8 °F 69.8 °F 100% 30.12 in 1.5 mi SW 6.9 mph - N/A Rain Heavy Rain
9:35 PM 69.8 °F 69.8 °F 100% 30.11 in 2.5 mi East 3.5 mph - N/A Rain Heavy Rain
9:55 PM 69.8 °F 69.8 °F 100% 30.11 in 4.0 mi WNW 9.2 mph - N/A Rain Heavy Rain
10:15 PM 68.0 °F 68.0 °F 100% 30.11 in 3.0 mi Calm Calm - N/A Rain Heavy Rain
10:35 PM 68.0 °F 68.0 °F 100% 30.12 in 4.0 mi South 4.6 mph - N/A Rain Heavy Rain
10:55 PM 68.0 °F 68.0 °F 100% 30.13 in 3.0 mi SW 3.5 mph - N/A Rain Heavy Rain
11:15 PM 68.0 °F 68.0 °F 100% 30.13 in 5.0 mi Calm Calm - N/A Rain Rain
11:35 PM 68.0 °F 68.0 °F 100% 30.13 in 10.0 mi Calm Calm - N/A Rain Light Rain
11:55 PM 68.0 °F 68.0 °F 100% 30.11 in 10.0 mi Calm Calm - N/A   Mostly Cloudy